Regional Weather Roundup
Issued by NWS Sterling, VA

Home | Current Version | Previous Version | Text Only | Print | Product List | Glossary Off
Versions: 1 2 3 4 5 6 7 8 9 10 11 12 13 14 15 16 17 18 19 20 21 22 23 24 25 26 27 28 29 30 31 32 33 34 35 36 37 38 39 40 41 42 43 44 45 46 47 48 49 50

000
ASUS41 KLWX 221010
RWRLWX

REGIONAL WEATHER ROUNDUP
NATIONAL WEATHER SERVICE BALTIMORE MD/WASHINGTON DC
600 AM EDT FRI AUG 22 2014

Note: "FAIR" indicates few or no clouds below 12,000 feet
with no significant weather and/or obstructions to visibility.
 TC=TEMPERATURE CELSIUS

 * =Non NWS site. Station does not report precipitation (e.g. rain,
    snow, etc.), thunder, or fog.

DCZ001-MDZ009-015-VAZ040>042-051-053>054-221100-
WASHINGTON METRO
  /KDAA//-FT BELVOIR

CITY           SKY/WX    TMP DP  RH WIND       PRES   REMARKS
WASHINGTON NAT MOCLDY    74  66  76 N6        29.97R
DULLES         PTCLDY    70  65  84 N3        29.98R
ANDREWS AFB    MOCLDY    70  66  87 NW6       29.96S
QUANTICO       MOCLDY    74  66  76 NE6       29.98R
COLLEGE PARK*  PTCLDY    70  68  94 CALM      29.96S
LEESBURG*      PTCLDY    70  68  94 CALM      29.99S
MANASSAS*      MOCLDY    70  68  94 CALM      29.97R
GAITHERSBURG*  CLEAR     66  64  94 CALM      30.02R

$$

MDZ006>007-011-014-221100-
BALTIMORE METRO

CITY           SKY/WX    TMP DP  RH WIND       PRES   REMARKS
BWI AIRPORT    MOCLDY    70  67  90 CALM      29.96S
MD SCIENCE CTR   N/A     73  67  81 MISG      29.97R
MARTIN STATE   CLOUDY    72  72 100 CALM      29.97S
ANNAPOLIS      CLEAR     74  69  85 N6        29.95S
FORT MEADE*    MOCLDY    64  63  94 CALM      29.98S

$$

MDZ012-015-019>023-221100-
MARYLAND EASTERN SHORE

CITY           SKY/WX    TMP DP  RH WIND       PRES   REMARKS
OCEAN CITY     CLOUDY    73  71  93 CALM      29.95R
SALISBURY      FOG       72  70  94 SE3       29.95R VSB 1
BAY BRIDGE AP*   N/A     73  70  88 N7        29.94F
CAMBRIDGE*     CLEAR     72  68  88 CALM      29.94R
EASTON*        CLEAR     73  73 100 CALM      29.98S

$$

MDZ017>025-221100-
SOUTHERN MARYLAND

CITY           SKY/WX    TMP DP  RH WIND       PRES   REMARKS
PATUXENT RIVER MOCLDY    74  67  78 NW9       29.94S
ST INIGOES     MOCLDY    74  66  76 N3        29.94R
LEONARDTOWN*   MOCLDY    72  66  83 CALM      29.97R

$$

MDZ003>005-221100-
NORTH CENTRAL MARYLAND

CITY           SKY/WX    TMP DP  RH WIND       PRES   REMARKS
FREDERICK*     MOCLDY   N/A N/A N/A CALM      30.01R HAZE
HAGERSTOWN APT PTCLDY    67  64  90 CALM      29.99S
WESTMINSTER*   PTCLDY    66  64  94 CALM      30.00R

$$

MDZ501>502-221100-
WESTERN MARYLAND

CITY           SKY/WX    TMP DP  RH WIND       PRES   REMARKS
OAKLAND*       FOG       63 N/A N/A CALM      30.08S VSB 3/4
CUMBERLAND*    MOCLDY    68  64  88 CALM      30.04R

$$

VAZ025>031-221100-
SHENANDOAH VALLEY

CITY           SKY/WX    TMP DP  RH WIND       PRES   REMARKS
WINCHESTER*    MOCLDY    66  64  94 CALM      29.99S
STAUNTON*      MOCLDY    65  63  93 CALM      30.05R

$$

WVZ021-048>050-054>055-221100-
EASTERN WEST VIRGINIA PANHANDLE

CITY           SKY/WX    TMP DP  RH WIND       PRES   REMARKS
MARTINSBURG    MOCLDY    66  63  90 CALM      29.99S
PETERSBURG*    NOT AVBL

$$

VAZ036>039-050-221100-
CENTRAL FOOTHILLS

CITY           SKY/WX    TMP DP  RH WIND       PRES   REMARKS
CHARLOTTESVILL CLOUDY    70  66  87 CALM      29.99R
ORANGE*        MOCLDY    68  66  94 CALM      30.00R FOG

$$

VAZ055>057-221100-
NORTH AND CENTRAL PIEDMONT

CITY           SKY/WX    TMP DP  RH WIND       PRES   REMARKS
FREDERICKSBRG* MOCLDY    73  73 100 CALM      29.96R
STAFFORD*      MOCLDY    69  69 100 N5        30.01R

$$

NCZ024-NYZ072-PAZ021-071-VAZ022-071-221100-
OTHER REGIONAL OBSERVATIONS

CITY           SKY/WX    TMP DP  RH WIND       PRES   REMARKS
NEW YORK CITY  CLOUDY    67  65  93 SE7       30.03S FOG
PHILADELPHIA   MOCLDY    68  65  90 E7        29.99R
PITTSBURGH     FOG       68  67  96 S3        30.00R VSB 1
ROANOKE        PTCLDY    71  65  81 SW7       30.04F
RICHMOND       CLOUDY    75  69  81 W5        29.97R
RALEIGH        MOCLDY    72  69  90 CALM      30.01R

$$

ANZ530>537-221100-
MARINE OBSERVATIONS

STATION/POSITION TIME  TEMP    WIND        PRES
                       AIR SEA DIR/SP/G
                 (UTC) (F)     (DEG/KT/KT) (MB)
THOMAS PT LIGHT  1000   73 78  340/  6/  7 1014.6F
BALT KEY BRIDGE  1000   73     360/  6/  8 1014.2F
COVE POINT       1000   76     350/ 15/ 17 1013.8R
LEWISETTA        1000   77 80  340/  5/  7 1013.8R
SOLOMONS ISLAND  1000      80                N/A
PINEY POINT      1000          360/  9/ 11   N/A

$$



USA.gov is the U.S. government's official web portal to all federal, state and local government web resources and services.